Regional Weather Roundup
Issued by NWS

Home | Current Version | Previous Version | Text Only | Print | Product List | Glossary On
Versions: 1 2 3 4 5 6 7 8 9 10 11 12 13 14 15 16 17 18 19 20 21 22 23 24 25 26 27
000
ASUS44 KBMX 210510
RWRAL

ALABAMA REGIONAL WEATHER ROUNDUP
NATIONAL WEATHER SERVICE BIRMINGHAM AL
1200 AM CDT SAT OCT 21 2017

NOTE: "FAIR" INDICATES FEW OR NO CLOUDS BELOW 12,000 FEET
WITH NO SIGNIFICANT WEATHER AND/OR OBSTRUCTIONS TO VISIBILITY.

THE REMARK "TC" DENOTES TEMPERATURE IN DEGREES CELSIUS.

ALZ001>011-014-016>018-020-210600-
NORTH ALABAMA

CITY           SKY/WX    TMP DP  RH WIND       PRES   REMARKS
MUSCLE SHOALS  PTCLDY    51  46  83 E5        30.18S
HUNTSVILLE     CLOUDY    55  54  96 E3        30.18S
DECATUR        CLOUDY    51  51 100 CALM      30.19S
HALEYVILLE     FAIR      57  51  80 SE5       30.19F
GADSDEN        CLOUDY    50  50 100 CALM      30.21S
$$

ALZ012-013-022-023-030>036-040>044-210600-
WEST CENTRAL ALABAMA

CITY           SKY/WX    TMP DP  RH WIND       PRES   REMARKS
TUSCALOOSA     PTCLDY    58  54  86 CALM      30.16F
DEMOPOLIS        N/A     58  56  93 CALM      30.14F
$$

ALZ015-024>026-033>036-041>044-210600-
CENTRAL ALABAMA

CITY           SKY/WX    TMP DP  RH WIND       PRES   REMARKS
BIRMINGHAM     MOCLDY    57  51  80 CALM      30.20F
MONTGOMERY     CLOUDY    59  52  77 CALM      30.17S
SHELBY CO ARPT CLOUDY    58  55  90 CALM      30.18F
MAXWELL AFB    PTCLDY    59  55  88 N5        30.16S
GREENVILLE     FAIR      61  52  72 CALM      30.15S
SELMA          FAIR      57  54  88 CALM      30.15F
PRATTVILLE     FAIR      55  54  97 CALM      30.16S
BESSEMER       FAIR      62  51  67 E5        30.18F
TALLADEGA      FAIR      54  53  97 CALM      30.20F
PELL CITY      CLEAR     52  52 100 CALM      30.20S
MARION         NOT AVBL
SYLACAUGA      MOCLDY    55  55 100 CALM      30.19S FOG
$$

ALZ019-021-028-029-037-038-045>048-210600-
EAST CENTRAL ALABAMA

CITY           SKY/WX    TMP DP  RH WIND       PRES   REMARKS
ANNISTON       CLOUDY    54  50  86 NE5       30.20F
ALEXANDER CITY CLOUDY    55  53  93 CALM      30.19S
AUBURN         CLOUDY    64  47  53 E6        30.21S
$$

ALZ051>064-210600-
SOUTHWEST ALABAMA

CITY           SKY/WX    TMP DP  RH WIND       PRES   REMARKS
MOBILE         MOCLDY    69  62  78 E6        30.11F
BROOKLEY FIELD CLOUDY    74  65  73 E10       30.11F
EVERGREEN      MOCLDY    60  58  92 CALM      30.15S
$$

ALZ049-050-065>069-210600-
SOUTHEAST ALABAMA

CITY           SKY/WX    TMP DP  RH WIND       PRES   REMARKS
DOTHAN         PTCLDY    67  48  50 E5        30.19F
OZARK          CLOUDY    62  52  70 NE6       30.15F
TROY           CLOUDY    58  56  93 CALM      30.17F
EUFAULA        FAIR      56  54  93 CALM      30.17F
$$




USA.gov is the U.S. government's official web portal to all federal, state and local government web resources and services.